User: anonymous
Location: Caltech
(34.1382°N, 118.1253°W)
Time: 15:08:05
(UTC-07:00)
Language:

Cosmos 1833 - Orbit

View from above orbital plane
View from above orbital plane
View from above satellite
View from above satellite

Ground track
Ground track

The orbit data is extracted from the following two-line orbital elements,

1 17589U 87027A   14113.09068392 -.00000103  00000-0 -29692-4 0  6974
2 17589 070.9209 083.6852 0008839 239.7922 191.8096 14.12848590397727
Epoch (UTC): 23 April 2014 02:10:35
Eccentricity: 0.0008839
inclination: 70.9209°
perigee height: 843 km
apogee height: 856 km
right ascension of ascending node: 83.6852°
argument of perigee: 239.7922°
revolutions per day: 14.12848590
mean anomaly at epoch: 191.8096°
orbit number at epoch: 39772

The dashed part of the orbit path shows where the satellite is in the earth's shadow,  

DLR